Terminal Aerodrome Forecast
Issued by NWS

Home | Current Version | Previous Version | Text Only | Print | Product List | Glossary On
Versions: 1 2 3 4 5 6 7 8 9 10 11 12 13 14 15 16 17
000
FTUS44 KLZK 310500
TAFHRO
TAF
KHRO 310540Z 3106/0106 13004KT P6SM OVC120
     FM311400 14007KT P6SM OVC100
     FM312100 14010KT P6SM OVC080 PROB30 0100/0106 SHRA=

USA.gov is the U.S. government's official web portal to all federal, state and local government web resources and services.